This is the latest recevied weather packets stored in our database for station/object KB0RPJ. If no packets are shown the sender has not sent any weather packets the latest 10 day(s).
| Time | Temp. | Humidity | Pressure | Rain* | Wind** | Luminosity | Snow |
|---|---|---|---|---|---|---|---|
| 1777394106 | 12.22° C | 71% | 1017.4 hPa | 0 mm | - | 662 W/m² | - |
| 1777393805 | 11.67° C | 71% | 1017.5 hPa | 0 mm | - | 851 W/m² | - |
| 1777393504 | 11.67° C | 70% | 1017.6 hPa | 0 mm | - | 822 W/m² | - |
| 1777393205 | 11.67° C | 70% | 1017.8 hPa | 0 mm | - | 809 W/m² | - |
| 1777392904 | 11.67° C | 69% | 1017.9 hPa | 0 mm | - | 702 W/m² | - |
| 1777392605 | 11.67° C | 69% | 1017.9 hPa | 0 mm | - | 578 W/m² | - |
| 1777392305 | 11.11° C | 71% | 1018.1 hPa | 0 mm | - | 356 W/m² | - |
| 1777392005 | 11.11° C | 72% | 1018.4 hPa | 0 mm | - | 405 W/m² | - |
| 1777391705 | 10.56° C | 71% | 1018.3 hPa | 0 mm | - | 335 W/m² | - |
| 1777391405 | 10.56° C | 69% | 1018.3 hPa | 0 mm | - | 821 W/m² | - |
| 1777391105 | 11.11° C | 71% | 1018.2 hPa | 0 mm | - | 274 W/m² | - |
| 1777390805 | 11.11° C | 72% | 1018.3 hPa | 0 mm | - | 356 W/m² | - |
| 1777390505 | 10.56° C | 72% | 1018.2 hPa | 0 mm | - | 409 W/m² | - |
| 1777390221 | 10.56° C | 72% | 1018.3 hPa | 0 mm | - | 350 W/m² | - |
| 1777389905 | 10.56° C | 73% | 1018.3 hPa | 0 mm | - | 321 W/m² | - |
| 1777389605 | 10.56° C | 74% | 1018.5 hPa | 0 mm | - | 325 W/m² | - |
| 1777389305 | 10.56° C | 75% | 1018.5 hPa | 0 mm | - | 273 W/m² | - |
| 1777389006 | 10.56° C | 75% | 1018.3 hPa | 0 mm | - | 375 W/m² | - |
| 1777388719 | 10.56° C | 74% | 1018.4 hPa | 0 mm | - | 298 W/m² | - |
| 1777388404 | 10° C | 74% | 1018.5 hPa | 0 mm | - | 260 W/m² | - |
| 1777388106 | 10° C | 75% | 1018.6 hPa | 0 mm | - | 236 W/m² | - |
| 1777387806 | 10° C | 76% | 1018.6 hPa | 0 mm | - | 235 W/m² | - |
| 1777387505 | 10° C | 78% | 1018.5 hPa | 0 mm | - | 233 W/m² | - |
| 1777387205 | 10° C | 78% | 1018.5 hPa | 0 mm | - | 197 W/m² | - |
| 1777386904 | 10° C | 77% | 1018.3 hPa | 0 mm | - | 216 W/m² | - |
* Rain latest hour (hover to see other rain measurements)
** Current wind speed in m/s (hover to see current wind gust speed)